Regional Weather Roundup
Issued by NWS

Home | Current Version | Previous Version | Graphics & Text | Print | Product List | Glossary Off
Versions: 1 2 3 4 5 6 7 8 9 10 11 12 13 14 15 16 17 18 19 20 21 22 23 24 25 26 27 28 29 30 31 32 33 34 35 36 37 38 39 40 41 42 43 44 45 46 47 48 49 50

000
ASUS43 KLSX 181159
RWRMO

WEATHER SUMMARY FOR MISSOURI
NATIONAL WEATHER SERVICE SPRINGFIELD MO
700 AM CDT FRI APR 18 2014

NOTE: "FAIR" INDICATES FEW OR NO CLOUDS BELOW 12,000 FEET WITH NO
       SIGNIFICANT WEATHER AND/OR OBSTRUCTIONS TO VISIBILITY.
       CURRENT SKY AND/OR WEATHER CONDITIONS ARE NOT AVAILABLE FOR
       CHILLICOTHE AND FARMINGTON.

MOZ001>031-035>038-043-044-053-054-181300-
...NORTHERN AND WESTERN MISSOURI...

CITY           SKY/WX    TMP DP  RH WIND       PRES   REMARKS
KANSAS CTY INT PTCLDY    36  32  85 SE3       30.30R FOG
6HR MIN TEMP:  33; 6HR MAX TEMP:  42;

KANSAS C DTWN  CLEAR     38  34  85 CALM      30.31R FOG
6HR MIN TEMP:  37; 6HR MAX TEMP:  42;

LEE`S SUMMIT   CLEAR     36  32  85 CALM      30.30R FOG
6HR MIN TEMP:  36; 6HR MAX TEMP:  41;

ST JOSEPH      CLEAR     30  27  88 CALM      30.32R FOG
6HR MIN TEMP:  28; 6HR MAX TEMP:  35;

KIRKSVILLE     CLEAR     32  29  88 NE6       30.32R WCI  26
6HR MIN TEMP:  29; 6HR MAX TEMP:  37;


$$
MOZ066>068-077>081-088>096-101>105-181300-
...SOUTHWEST MISSOURI...

CITY           SKY/WX    TMP DP  RH WIND       PRES   REMARKS
SPRINGFIELD    CLOUDY    45  39  79 NE3       30.26R
6HR MIN TEMP:  41; 6HR MAX TEMP:  50;

JOPLIN         CLEAR     38  38 100 CALM      30.28R FOG
6HR MIN TEMP:  37; 6HR MAX TEMP:  45;


$$
MOZ032>034-039>042-045>050-055>058-069>072-181300-
...CENTRAL MISSOURI...

CITY           SKY/WX    TMP DP  RH WIND       PRES   REMARKS
COLUMBIA       CLEAR     40  38  93 NE7       30.30R FOG
6HR MIN TEMP:  38; 6HR MAX TEMP:  45;

JEFFERSON CITY CLEAR     40  37  89 NW6       30.31R FOG
6HR MIN TEMP:  39; 6HR MAX TEMP:  48;

ROLLA          MOCLDY    41  38  89 NE6       30.27R
6HR MIN TEMP:  39; 6HR MAX TEMP:  45;

SEDALIA        CLEAR     39  37  92 NE3       30.30R FOG
6HR MIN TEMP:  38; 6HR MAX TEMP:  40;

OSAGE BEACH    CLEAR     39  36  87 NE3       30.31R

$$
MOZ051-052-059>065-181300-
...EAST CENTRAL MISSOURI...

CITY           SKY/WX    TMP DP  RH WIND       PRES   REMARKS
ST LOUIS INTL  PTCLDY    48  38  68 NE5       30.30S
6HR MIN TEMP:  45; 6HR MAX TEMP:  53;

SPIRIT OF STL  CLEAR     40  37  89 CALM      30.30R
6HR MIN TEMP:  40; 6HR MAX TEMP:  50;

ST CHARLES     CLEAR     43  37  79 CALM      30.30R
6HR MIN TEMP:  42; 6HR MAX TEMP:  50;


$$
MOZ072>076-082>087-097>100-106>115-181300-
...SOUTH CENTRAL AND SOUTHEAST MISSOURI...

CITY           SKY/WX    TMP DP  RH WIND       PRES   REMARKS
CAPE GIRARDEAU MOCLDY    49  44  83 CALM      30.26R
6HR MIN TEMP:  44; 6HR MAX TEMP:  49;

FARMINGTON     CLOUDY    48  41  76 NW5       30.29R
6HR MIN TEMP:  46; 6HR MAX TEMP:  52;

POPLAR BLUFF   PTCLDY    50  44  80 NW3       30.24R
6HR MIN TEMP:  49; 6HR MAX TEMP:  53; 6HR PCP: TRACE;

WEST PLAINS    PTCLDY    45  39  79 CALM      30.26R
6HR MIN TEMP:  45; 6HR MAX TEMP:  53;


$$



USA.gov is the U.S. government's official web portal to all federal, state and local government web resources and services.